This is the latest recevied weather packets stored in our database for station/object KE6LRO. If no packets are shown the sender has not sent any weather packets the latest 10 day(s).
| Time | Temp. | Humidity | Pressure | Rain* | Wind** | Luminosity | Snow |
|---|---|---|---|---|---|---|---|
| 1777972766 | 2.22° C | 85% | 1018.3 hPa | 0 mm | - | 0 W/m² | - |
| 1777972463 | 2.78° C | 84% | 1018.3 hPa | 0 mm | - | 0 W/m² | - |
| 1777972161 | 2.78° C | 84% | 1018.4 hPa | 0 mm | - | 0 W/m² | - |
| 1777971859 | 2.78° C | 83% | 1018.3 hPa | 0 mm | - | 0 W/m² | - |
| 1777971556 | 3.33° C | 83% | 1018.3 hPa | 0 mm | - | 0 W/m² | - |
| 1777971254 | 3.33° C | 81% | 1018.3 hPa | 0 mm | - | 0 W/m² | - |
| 1777970952 | 3.89° C | 80% | 1018.4 hPa | 0 mm | - | 0 W/m² | - |
| 1777970650 | 3.89° C | 79% | 1018.5 hPa | 0 mm | - | 0 W/m² | - |
| 1777970348 | 3.89° C | 79% | 1018.5 hPa | 0 mm | - | 0 W/m² | - |
| 1777970045 | 3.89° C | 78% | 1018.3 hPa | 0 mm | - | 0 W/m² | - |
| 1777969741 | 4.44° C | 77% | 1018.5 hPa | 0 mm | - | 0 W/m² | - |
| 1777969437 | 5° C | 75% | 1018.3 hPa | 0 mm | - | 0 W/m² | - |
| 1777969134 | 5° C | 75% | 1018.4 hPa | 0 mm | - | 0 W/m² | - |
| 1777968830 | 5° C | 72% | 1018.4 hPa | 0 mm | - | 0 W/m² | - |
| 1777968527 | 5° C | 73% | 1018.2 hPa | 0 mm | - | 0 W/m² | - |
| 1777968223 | 5.56° C | 72% | 1018.4 hPa | 0 mm | - | 0 W/m² | - |
| 1777967919 | 5° C | 74% | 1018.5 hPa | 0 mm | - | 0 W/m² | - |
| 1777967616 | 5.56° C | 73% | 1018.4 hPa | 0 mm | - | 0 W/m² | - |
| 1777967313 | 5° C | 74% | 1018.5 hPa | 0 mm | - | 0 W/m² | - |
| 1777967011 | 5.56° C | 75% | 1018.5 hPa | 0 mm | - | 0 W/m² | - |
| 1777966708 | 5.56° C | 72% | 1018.5 hPa | 0 mm | - | 0 W/m² | - |
| 1777966406 | 6.11° C | 73% | 1018.3 hPa | 0 mm | - | 0 W/m² | - |
| 1777966102 | 6.67° C | 69% | 1018.3 hPa | 0 mm | - | 0 W/m² | - |
| 1777965799 | 7.22° C | 66% | 1018.3 hPa | 0 mm | - | 0 W/m² | - |
| 1777965494 | 7.78° C | 62% | 1018.1 hPa | 0 mm | - | 0 W/m² | - |
* Rain latest hour (hover to see other rain measurements)
** Current wind speed in m/s (hover to see current wind gust speed)